Date String (YYYY-MM-DD hh:mm:ss) UTC,Instrument flags,absolute air pressure of the measurement (hPa),sample flow rate (lpm),inlet stack bypass flow (lpm),air temperature of the measurement (°C),ambient temperature measured by the external sensor (°C),aerosol sample conditioner tube jacket temperature (°C),OPC LED temperature (°C),internal box temperature (°C),relative humidity of the measurement (%),span deviation,mass concentration of particles derived from Lorenz-Mie calculation of OPC scattering (μg/m³),mass concentration of particles derived from Lorenz-Mie calculation of OPC scattering (μg/m³),mass concentration of particles derived from Lorenz-Mie calculation of OPC scattering (μg/m³)
DateTimeUTC,F1_M11,P_M11,Q1_M11,Q2_M11,T1_M11,T2_M11,T3_M11,T4_M11,T5_M11,U1_M11,ZSPAN_M11,X2_M11,X0_M11,X1_M11
2023-06-18 16:00:00,SystemResetWarning,0826.2,5.00,000.00,029.6,026.4,000.0,038.1,031.0,21.9,0000.0,0004.34,0007.96,0003.86
2023-06-18 16:01:00,SystemResetWarning,0826.2,5.00,000.00,029.6,026.8,000.0,038.1,031.0,21.2,0000.0,0004.31,0007.85,0003.86
2023-06-18 16:02:00,SystemResetWarning,0826.2,5.00,000.00,029.6,027.1,000.0,038.1,031.1,21.5,0000.0,0004.28,0007.99,0003.86
2023-06-18 16:03:00,SystemResetWarning,0826.2,5.00,000.00,029.6,027.4,000.0,038.1,031.1,21.7,0000.0,0004.27,0008.14,0003.85
2023-06-18 16:04:00,SystemResetWarning,0826.2,4.99,000.00,029.6,027.6,000.0,038.1,031.1,21.6,0000.0,0004.27,0008.49,0003.85
2023-06-18 16:05:00,SystemResetWarning,0826.2,4.99,000.00,029.6,027.8,000.0,038.1,031.2,22.3,0000.0,0004.25,0008.24,0003.86
2023-06-18 16:06:00,SystemResetWarning,0826.2,5.00,000.00,029.7,027.9,000.0,038.2,031.2,22.7,0000.0,0004.22,0008.06,0003.85
2023-06-18 16:07:00,SystemResetWarning,0826.2,5.01,000.00,029.7,028.1,000.0,038.2,031.3,23.7,0000.0,0004.20,0008.19,0003.86
2023-06-18 16:08:00,SystemResetWarning,0826.2,5.01,000.00,029.7,028.1,000.0,038.2,031.3,22.5,0000.0,0004.18,0008.45,0003.85
2023-06-18 16:09:00,SystemResetWarning,0826.2,4.98,000.00,029.7,026.5,000.0,038.1,031.4,22.1,0000.0,0004.20,0008.47,0003.84
2023-06-18 16:10:00,SystemResetWarning,0826.1,5.01,000.00,029.7,025.4,000.0,038.1,031.3,21.3,0000.0,0004.19,0008.36,0003.85
2023-06-18 16:11:00,SystemResetWarning,0826.0,5.01,000.00,029.7,025.7,000.0,038.1,031.1,21.3,0000.0,0004.20,0008.38,0003.85
2023-06-18 16:12:00,SystemResetWarning,0826.0,4.99,000.00,029.6,026.0,000.0,038.1,030.9,22.7,0000.0,0004.24,0008.53,0003.86
2023-06-18 16:13:00,SystemResetWarning,0826.0,5.00,000.00,029.6,026.3,000.0,038.1,030.9,24.0,0000.0,0004.24,0008.40,0003.86
2023-06-18 16:14:00,SystemResetWarning,0826.0,5.01,000.00,029.6,026.7,000.0,038.1,030.9,23.4,0000.0,0004.26,0008.81,0003.86
2023-06-18 16:15:00,SystemResetWarning,0826.0,5.01,000.00,029.6,027.0,000.0,038.1,031.0,23.9,0000.0,0004.26,0008.66,0003.86
2023-06-18 16:16:00,SystemResetWarning,0826.0,4.99,000.00,029.6,027.3,000.0,038.1,031.0,22.8,0000.0,0004.24,0008.69,0003.85
2023-06-18 16:17:00,SystemResetWarning,0826.0,4.99,000.00,029.6,027.5,000.0,038.1,031.1,22.4,0000.0,0004.23,0008.77,0003.85
2023-06-18 16:18:00,SystemResetWarning,0826.0,5.00,000.00,029.6,027.7,000.0,038.1,031.1,21.6,0000.0,0004.26,0009.19,0003.86
2023-06-18 16:19:00,SystemResetWarning,0826.0,5.00,000.00,029.6,027.9,000.0,038.1,031.2,21.5,0000.0,0004.31,0008.90,0003.87
2023-06-18 16:20:00,SystemResetWarning,0825.9,5.00,000.00,029.6,028.0,000.0,038.1,031.2,22.0,0000.0,0004.31,0008.92,0003.88
2023-06-18 16:21:00,SystemResetWarning,0825.9,5.00,000.00,029.7,027.9,000.0,038.1,031.3,21.7,0000.0,0004.30,0008.92,0003.88
2023-06-18 16:22:00,SystemResetWarning,0826.0,5.00,000.00,029.7,026.2,000.0,038.1,031.2,22.4,0000.0,0004.29,0008.89,0003.88
2023-06-18 16:23:00,SystemResetWarning,0825.9,5.01,000.00,029.7,025.5,000.0,038.1,031.2,21.8,0000.0,0004.29,0008.84,0003.86
2023-06-18 16:24:00,SystemResetWarning,0826.0,5.01,000.00,029.6,025.8,000.0,038.0,031.0,22.0,0000.0,0004.29,0009.48,0003.87
2023-06-18 16:25:00,SystemResetWarning,0826.0,5.00,000.00,029.6,026.1,000.0,038.1,031.0,22.1,0000.0,0004.32,0009.29,0003.88
2023-06-18 16:26:00,SystemResetWarning,0826.0,4.98,000.00,029.5,026.5,000.0,038.1,030.9,22.7,0000.0,0004.32,0009.19,0003.90
2023-06-18 16:27:00,SystemResetWarning,0826.0,5.00,000.00,029.5,026.8,000.0,038.1,030.9,23.0,0000.0,0004.36,0009.32,0003.92
2023-06-18 16:28:00,SystemResetWarning,0826.0,5.02,000.00,029.5,027.1,000.0,038.1,031.0,22.4,0000.0,0004.38,0009.28,0003.94
2023-06-18 16:29:00,SystemResetWarning,0826.0,5.00,000.00,029.5,027.4,000.0,038.1,031.1,22.2,0000.5,0004.37,0009.24,0003.93
2023-06-18 16:30:00,SystemResetWarning,0826.0,4.99,000.00,029.6,027.6,000.0,038.1,031.1,23.4,0003.5,0004.35,0009.28,0003.95
2023-06-18 16:31:00,SystemResetWarning,0826.0,5.00,000.00,029.6,027.8,000.0,038.1,031.2,22.7,0000.0,0004.34,0009.19,0003.97
2023-06-18 16:32:00,SystemResetWarning,0826.0,5.02,000.00,029.6,028.0,000.0,038.1,031.2,22.9,0000.0,0004.35,0009.17,0003.99
2023-06-18 16:33:00,SystemResetWarning,0826.0,4.97,000.00,029.7,027.5,000.0,038.1,031.3,23.1,0000.0,0004.37,0009.23,0004.00
2023-06-18 16:34:00,SystemResetWarning,0826.0,5.00,000.00,029.6,025.4,000.0,038.0,031.1,22.7,0000.0,0004.38,0009.48,0004.03
2023-06-18 16:35:00,SystemResetWarning,0826.0,5.01,000.00,029.6,024.4,000.0,038.0,030.9,23.6,0000.0,0004.38,0009.18,0004.04
2023-06-18 16:36:00,SystemResetWarning,0826.0,5.02,000.00,029.5,024.8,000.0,037.9,030.8,24.8,0000.0,0004.38,0008.89,0004.05
2023-06-18 16:37:00,SystemResetWarning,0826.0,5.00,000.00,029.4,025.2,000.0,037.9,030.7,23.8,0000.0,0004.40,0009.21,0004.06
2023-06-18 16:38:00,SystemResetWarning,0826.0,5.00,000.00,029.4,025.7,000.0,037.9,030.7,24.0,0000.0,0004.40,0009.25,0004.07
2023-06-18 16:39:00,SystemResetWarning,0826.0,5.01,000.00,029.3,026.1,000.0,037.9,030.7,24.3,0000.0,0004.40,0009.15,0004.08
2023-06-18 16:40:00,SystemResetWarning,0826.0,4.98,000.00,029.3,026.5,000.0,037.9,030.7,25.3,0000.0,0004.42,0008.86,0004.09
2023-06-18 16:41:00,SystemResetWarning,0826.0,4.99,000.00,029.3,026.8,000.0,037.9,030.8,24.3,0000.0,0004.44,0008.74,0004.09
2023-06-18 16:42:00,SystemResetWarning,0826.0,5.02,000.00,029.4,027.1,000.0,037.9,030.9,24.1,0000.0,0004.43,0008.74,0004.09
2023-06-18 16:43:00,SystemResetWarning,0826.0,5.01,000.00,029.4,027.4,000.0,037.9,030.9,24.0,0000.0,0004.44,0009.04,0004.10
2023-06-18 16:44:00,SystemResetWarning,0826.0,4.99,000.00,029.4,027.5,000.0,037.9,030.9,24.4,0000.0,0004.46,0009.77,0004.11
2023-06-18 16:45:00,SystemResetWarning,0826.0,4.99,000.00,029.4,027.7,000.0,038.0,031.0,25.2,0000.0,0004.47,0009.70,0004.10
2023-06-18 16:46:00,SystemResetWarning,0825.9,5.00,000.00,029.5,027.9,000.0,038.0,031.1,24.7,0000.0,0004.47,0009.22,0004.09
2023-06-18 16:47:00,SystemResetWarning,0825.9,5.00,000.00,029.5,028.0,000.0,038.0,031.1,24.8,0000.0,0004.47,0009.19,0004.09
2023-06-18 16:48:00,SystemResetWarning,0825.9,5.00,000.00,029.5,028.0,000.0,038.0,031.2,24.8,0000.0,0004.44,0008.82,0004.09
2023-06-18 16:49:00,SystemResetWarning,0825.9,5.00,000.00,029.6,026.5,000.0,038.0,031.2,24.6,0000.0,0004.45,0008.39,0004.10
2023-06-18 16:50:00,SystemResetWarning,0825.8,5.00,000.00,029.5,025.5,000.0,037.9,031.2,25.0,0000.0,0004.45,0008.49,0004.09
2023-06-18 16:51:00,SystemResetWarning,0825.9,5.01,000.00,029.5,025.7,000.0,037.9,031.0,25.5,0000.0,0004.44,0008.44,0004.09
2023-06-18 16:52:00,SystemResetWarning,0825.9,5.01,000.00,029.4,026.0,000.0,037.9,030.8,26.1,0000.0,0004.42,0008.25,0004.09
2023-06-18 16:53:00,SystemResetWarning,0825.9,4.99,000.00,029.4,026.4,000.0,037.9,030.8,25.9,0000.0,0004.43,0008.82,0004.09
2023-06-18 16:54:00,SystemResetWarning,0825.9,4.99,000.00,029.4,026.7,000.0,037.9,030.9,25.5,0000.0,0004.44,0008.72,0004.09
2023-06-18 16:55:00,SystemResetWarning,0825.9,5.00,000.00,029.4,027.1,000.0,037.9,030.9,25.4,0000.0,0004.45,0008.00,0004.10
2023-06-18 16:56:00,SystemResetWarning,0825.9,5.01,000.00,029.5,027.3,000.0,038.0,031.0,26.4,0000.0,0004.44,0007.98,0004.10
2023-06-18 16:57:00,SystemResetWarning,0825.9,5.00,000.00,029.5,027.5,000.0,038.0,031.0,25.9,0000.0,0004.45,0008.07,0004.10
2023-06-18 16:58:00,SystemResetWarning,0825.9,5.00,000.00,029.5,027.7,000.0,038.0,031.1,26.2,0000.0,0004.43,0008.14,0004.09
2023-06-18 16:59:00,SystemResetWarning,0825.9,4.99,000.00,029.5,027.9,000.0,038.0,031.1,26.1,0000.0,0004.46,0008.56,0004.08
